230P/LINEAR (2022)

Japanese version
Home page
Updated on August 31, 2019

---------------------------------------------------------------------

* Profile

* Orbital Elements

Epoch 2022 Mar. 2.0 TT = JDT 2459640.5
T 2022 Mar. 19.33173 TT                                 MPCW
q   1.5687776            (2000.0)            P               Q
n   0.15373477     Peri.  313.42974     +0.46856196     -0.84579665
a   3.4510769      Node   106.98450     +0.86786012     +0.38671853
e   0.5454238      Incl.   15.47022     +0.16513177     +0.36752796
P   6.41
From 1250 observations 1997 Jan. 10-2018 May 21, mean residual 0".4.

* Magnitudes Graph

        H = 14.5  G = 0.15

---------------------------------------------------------------------

The orbital elements are published on M.P.E.C. 2018-K95.
The magnitudes graphs are made with Comet for Windows.

---------------------------------------------------------------------

Copyright(C) Seiichi Yoshida (comet@aerith.net). All rights reserved.